ACA1545 CYYZ-KMSP

Flight info

Callsign ACA1545
Flight time N/A
Altitude 36000
Route URSAL4 KASED DCT IDIOM MUSCL4
Aircraft A320/M-SDE3FGHIRWY/LB1

Departure

Time 2026-05-04 19:10
Airport Toronto Pearson International Airport (CYYZ)

Arrival

Time N/A
Airport Minneapolis–Saint Paul International Airport / Wold–Chamberlain Field (KMSP)
Time Latitude Longitude Altitude Speed Heading
2026-05-04 18:52 43.67983 -79.61260 562 ft 0 kts 53°
2026-05-04 18:58 43.67978 -79.61270 561 ft 4 kts 53°
2026-05-04 18:58 43.67962 -79.61300 569 ft 4 kts 54°
2026-05-04 18:59 43.67949 -79.61324 571 ft 4 kts 52°
2026-05-04 18:59 43.67929 -79.61345 571 ft 4 kts 13°
2026-05-04 18:59 43.67912 -79.61352 563 ft 0 kts 23°
2026-05-04 19:02 43.67921 -79.61347 564 ft 4 kts 20°
2026-05-04 19:02 43.67954 -79.61379 561 ft 9 kts 276°
2026-05-04 19:03 43.67903 -79.61428 564 ft 10 kts 207°
2026-05-04 19:03 43.67853 -79.61497 565 ft 10 kts 225°
2026-05-04 19:03 43.67801 -79.61570 563 ft 11 kts 225°
2026-05-04 19:03 43.67746 -79.61645 564 ft 11 kts 215°
2026-05-04 19:04 43.67655 -79.61647 565 ft 13 kts 205°
2026-05-04 19:04 43.67646 -79.61742 569 ft 12 kts 312°
2026-05-04 19:04 43.67715 -79.61834 563 ft 19 kts 315°
2026-05-04 19:04 43.67815 -79.61965 563 ft 20 kts 314°
2026-05-04 19:05 43.67933 -79.62078 568 ft 20 kts 339°
2026-05-04 19:05 43.68045 -79.62197 562 ft 21 kts 315°
2026-05-04 19:05 43.68152 -79.62338 562 ft 22 kts 317°
2026-05-04 19:05 43.68268 -79.62482 564 ft 23 kts 318°
2026-05-04 19:06 43.68387 -79.62630 567 ft 23 kts 315°
2026-05-04 19:06 43.68507 -79.62788 568 ft 24 kts 318°
2026-05-04 19:06 43.68635 -79.62951 563 ft 25 kts 316°
2026-05-04 19:06 43.68720 -79.63063 561 ft 26 kts 316°
2026-05-04 19:07 43.68757 -79.63113 562 ft 26 kts 317°
2026-05-04 19:07 43.68889 -79.63284 563 ft 26 kts 316°
2026-05-04 19:07 43.69004 -79.63434 564 ft 20 kts 315°
2026-05-04 19:07 43.69096 -79.63532 572 ft 13 kts 355°
2026-05-04 19:08 43.69159 -79.63476 571 ft 10 kts 49°
2026-05-04 19:08 43.69219 -79.63424 569 ft 11 kts
2026-05-04 19:08 43.69293 -79.63422 568 ft 12 kts
2026-05-04 19:08 43.69383 -79.63453 567 ft 14 kts 321°
2026-05-04 19:09 43.69366 -79.63580 564 ft 22 kts 226°
2026-05-04 19:09 43.69106 -79.63955 568 ft 86 kts 226°
2026-05-04 19:09 43.68562 -79.64746 567 ft 139 kts 226°
2026-05-04 19:09 43.67834 -79.65787 942 ft 152 kts 227°
2026-05-04 19:10 43.67159 -79.66916 1676 ft 153 kts 233°
2026-05-04 19:10 43.66520 -79.68186 2076 ft 172 kts 233°
2026-05-04 19:10 43.65795 -79.69640 2362 ft 196 kts 233°
2026-05-04 19:10 43.64971 -79.71288 2714 ft 221 kts 234°
2026-05-04 19:11 43.64062 -79.73105 3312 ft 235 kts 235°
2026-05-04 19:11 43.63129 -79.74970 4235 ft 237 kts 237°
2026-05-04 19:11 43.62508 -79.77088 4840 ft 243 kts 261°
2026-05-04 19:11 43.62719 -79.79422 5743 ft 252 kts 287°
2026-05-04 19:12 43.63621 -79.81533 6666 ft 258 kts 298°
2026-05-04 19:12 43.65649 -79.85665 8413 ft 262 kts 299°
2026-05-04 19:12 43.66678 -79.87757 9294 ft 265 kts 299°
2026-05-04 19:13 43.67718 -79.89878 10082 ft 268 kts 299°
2026-05-04 19:13 43.68793 -79.92082 10478 ft 287 kts 299°
2026-05-04 19:13 43.69954 -79.94466 10686 ft 311 kts 301°
2026-05-04 19:13 43.71281 -79.96970 10841 ft 334 kts 303°
2026-05-04 19:14 43.72745 -79.99550 11267 ft 346 kts 304°
2026-05-04 19:14 43.74268 -80.02155 11905 ft 350 kts 305°
2026-05-04 19:14 43.75809 -80.04782 12600 ft 354 kts 305°
2026-05-04 19:14 43.77307 -80.07354 13247 ft 357 kts 305°
2026-05-04 19:15 43.78860 -80.10052 13877 ft 360 kts 305°
2026-05-04 19:15 43.80413 -80.12785 14495 ft 362 kts 304°
2026-05-04 19:15 43.81968 -80.15537 15104 ft 364 kts 304°
2026-05-04 19:15 43.83481 -80.18356 15711 ft 365 kts 299°
2026-05-04 19:16 43.84645 -80.21465 16323 ft 364 kts 292°
2026-05-04 19:16 43.85690 -80.24670 16942 ft 366 kts 292°
2026-05-04 19:16 43.86742 -80.27896 17546 ft 369 kts 292°
2026-05-04 19:16 43.87800 -80.31144 18112 ft 371 kts 292°
2026-05-04 19:17 43.88864 -80.34417 18626 ft 373 kts 292°
2026-05-04 19:17 43.89931 -80.37703 19136 ft 374 kts 292°
2026-05-04 19:17 43.91002 -80.41001 19635 ft 376 kts 292°
2026-05-04 19:17 43.92078 -80.44317 20111 ft 378 kts 292°
2026-05-04 19:18 43.93160 -80.47646 20589 ft 380 kts 292°
2026-05-04 19:18 43.94246 -80.50998 21054 ft 382 kts 291°
2026-05-04 19:18 43.95337 -80.54361 21504 ft 383 kts 292°
2026-05-04 19:18 43.96432 -80.57744 21941 ft 385 kts 291°
2026-05-04 19:19 43.97532 -80.61143 22370 ft 387 kts 291°
2026-05-04 19:19 43.98635 -80.64562 22777 ft 389 kts 291°
2026-05-04 19:19 43.99744 -80.67996 23182 ft 391 kts 291°
2026-05-04 19:19 44.00856 -80.71454 23508 ft 392 kts 291°
2026-05-04 19:20 44.01965 -80.74925 23838 ft 394 kts 291°
2026-05-04 19:20 44.03077 -80.78408 24164 ft 395 kts 291°
2026-05-04 19:20 44.04194 -80.81910 24472 ft 397 kts 291°
2026-05-04 19:20 44.05301 -80.85378 24782 ft 398 kts 291°
2026-05-04 19:21 44.06443 -80.88950 25096 ft 400 kts 291°